| time (UTC) | temp F | wind direction | speed knots | gust knots | rain 1hr in | rain 24hr in | rain mn in | humidity % | barometer mb |
| 20260503213128 | 62 | 211 | 9.6 | 11.3 | 0.00 | 0.00 | 0.00 | 67 | 1013.2 |
| 20260503212625 | 61 | 222 | 5.2 | 7.8 | 0.00 | 0.00 | 0.00 | 68 | 1013.3 |
| 20260503212123 | 61 | 271 | 4.3 | 8.7 | 0.00 | 0.00 | 0.00 | 68 | 1013.1 |
| 20260503211620 | 61 | 234 | 5.2 | 8.7 | 0.00 | 0.00 | 0.00 | 68 | 1013.2 |
| 20260503211115 | 61 | 260 | 2.6 | 7.8 | 0.00 | 0.00 | 0.00 | 69 | 1013.3 |
| 20260503210612 | 61 | 220 | 7.8 | 9.6 | 0.00 | 0.00 | 0.00 | 67 | 1013.3 |
| 20260503210109 | 62 | 334 | 6.1 | 9.6 | 0.00 | 0.00 | 0.00 | 66 | 1013.3 |
| 20260503205605 | 61 | 214 | 7.8 | 11.3 | 0.00 | 0.00 | 0.00 | 66 | 1013.2 |
| 20260503205101 | 61 | 253 | 1.7 | 12.2 | 0.00 | 0.00 | 0.00 | 66 | 1013.3 |
| 20260503204558 | 61 | 229 | 5.2 | 7.8 | 0.00 | 0.00 | 0.00 | 67 | 1013.0 |
| 20260503204055 | 61 | 279 | 5.2 | 10.4 | 0.00 | 0.00 | 0.00 | 66 | 1013.1 |
| 20260503203552 | 62 | 229 | 3.5 | 9.6 | 0.00 | 0.00 | 0.00 | 64 | 1013.1 |
| 20260503203049 | 62 | 255 | 2.6 | 9.6 | 0.00 | 0.00 | 0.00 | 65 | 1013.3 |
| 20260503202547 | 62 | 284 | 8.7 | 9.6 | 0.00 | 0.00 | 0.00 | 67 | 1013.4 |
| 20260503202045 | 61 | 256 | 3.5 | 9.6 | 0.00 | 0.00 | 0.00 | 66 | 1013.2 |
| 20260503201543 | 62 | 358 | 5.2 | 7.0 | 0.00 | 0.00 | 0.00 | 64 | 1013.3 |
| 20260503201040 | 62 | 332 | 3.5 | 5.2 | 0.00 | 0.00 | 0.00 | 65 | 1013.5 |
| 20260503200536 | 62 | 302 | 7.0 | 7.8 | 0.00 | 0.00 | 0.00 | 65 | 1013.3 |
| 20260503200033 | 61 | 98 | 0.0 | 4.3 | 0.00 | 0.00 | 0.00 | 67 | 1013.5 |
| 20260503195530 | 61 | 148 | 1.7 | 4.3 | 0.00 | 0.00 | 0.00 | 68 | 1013.4 |
| 20260503195027 | 60 | 138 | 1.7 | 2.6 | 0.00 | 0.00 | 0.00 | 69 | 1013.5 |
| 20260503194525 | 60 | 328 | 2.6 | 8.7 | 0.00 | 0.00 | 0.00 | 69 | 1013.6 |
| 20260503194024 | 60 | 40 | 6.1 | 7.8 | 0.00 | 0.00 | 0.00 | 68 | 1013.4 |
| 20260503193521 | 60 | 228 | 2.6 | 3.5 | 0.00 | 0.00 | 0.00 | 70 | 1013.6 |
| 20260503193016 | 60 | 283 | 7.0 | 12.2 | 0.00 | 0.00 | 0.00 | 69 | 1013.6 |
| 20260503192512 | 60 | 225 | 0.0 | 8.7 | 0.00 | 0.00 | 0.00 | 68 | 1013.6 |
| 20260503192008 | 60 | 43 | 1.7 | 8.7 | 0.00 | 0.00 | 0.00 | 70 | 1013.5 |
| 20260503191505 | 60 | 264 | 4.3 | 7.8 | 0.00 | 0.00 | 0.00 | 70 | 1013.8 |
| 20260503191002 | 60 | 290 | 2.6 | 7.8 | 0.00 | 0.00 | 0.00 | 72 | 1013.7 |
| 20260503190459 | 60 | 317 | 7.8 | 9.6 | 0.00 | 0.00 | 0.00 | 71 | 1013.6 |
| 20260503185956 | 60 | 198 | 2.6 | 3.5 | 0.00 | 0.00 | 0.00 | 71 | 1013.5 |
| 20260503185452 | 60 | 266 | 2.6 | 8.7 | 0.00 | 0.00 | 0.00 | 72 | 1013.6 |
| 20260503184952 | 60 | 328 | 3.5 | 11.3 | 0.00 | 0.00 | 0.00 | 70 | 1013.6 |
| 20260503184448 | 61 | 354 | 7.0 | 7.8 | 0.00 | 0.00 | 0.00 | 70 | 1013.7 |
| 20260503183945 | 59 | 300 | 0.9 | 4.3 | 0.00 | 0.00 | 0.00 | 73 | 1013.6 |
| 20260503183441 | 59 | 226 | 7.8 | 13.0 | 0.00 | 0.00 | 0.00 | 72 | 1013.6 |
| 20260503182938 | 60 | 262 | 5.2 | 7.8 | 0.00 | 0.00 | 0.00 | 71 | 1013.6 |
| 20260503182437 | 60 | 357 | 3.5 | 7.8 | 0.00 | 0.00 | 0.00 | 71 | 1013.4 |
| 20260503181934 | 60 | 15 | 3.5 | 5.2 | 0.00 | 0.00 | 0.00 | 72 | 1013.5 |
| 20260503181431 | 60 | 236 | 1.7 | 4.3 | 0.00 | 0.00 | 0.00 | 72 | 1013.7 |
| 20260503180927 | 60 | 309 | 2.6 | 3.5 | 0.00 | 0.00 | 0.00 | 72 | 1013.5 |
| 20260503180427 | 60 | 268 | 0.9 | 3.5 | 0.00 | 0.00 | 0.00 | 72 | 1013.5 |
| 20260503175923 | 60 | 330 | 3.5 | 7.8 | 0.00 | 0.00 | 0.00 | 72 | 1013.7 |
| 20260503175421 | 59 | 175 | 5.2 | 5.2 | 0.00 | 0.00 | 0.00 | 75 | 1013.2 |
| 20260503174916 | 59 | 338 | 6.1 | 6.1 | 0.00 | 0.00 | 0.00 | 75 | 1013.4 |
| 20260503174415 | 59 | 239 | 5.2 | 7.0 | 0.00 | 0.00 | 0.00 | 77 | 1013.4 |
| 20260503173914 | 58 | 265 | 2.6 | 10.4 | 0.00 | 0.00 | 0.00 | 76 | 1013.3 |
| 20260503173411 | 58 | 247 | 7.8 | 7.8 | 0.00 | 0.00 | 0.00 | 77 | 1013.4 |
| 20260503172908 | 58 | 273 | 5.2 | 5.2 | 0.00 | 0.00 | 0.00 | 78 | 1013.5 |
| 20260503172405 | 58 | 239 | 4.3 | 8.7 | 0.00 | 0.00 | 0.00 | 78 | 1013.6 |
| 20260503171901 | 58 | 261 | 3.5 | 8.7 | 0.00 | 0.00 | 0.00 | 80 | 1013.7 |
| 20260503171358 | 57 | 250 | 2.6 | 3.5 | 0.00 | 0.00 | 0.00 | 84 | 1013.5 |
| 20260503170856 | 56 | 30 | 2.6 | 6.1 | 0.00 | 0.00 | 0.00 | 85 | 1013.6 |
| 20260503170352 | 57 | 254 | 3.5 | 4.3 | 0.00 | 0.00 | 0.00 | 85 | 1013.8 |
| 20260503150744 | 55 | 151 | 1.7 | 2.6 | 0.00 | 0.00 | 0.00 | 83 | 1012.8 |
| 20260503150240 | 55 | 141 | 0.0 | 1.7 | 0.00 | 0.00 | 0.00 | 83 | 1012.9 |
| 20260503140204 | 54 | 224 | 0.0 | 1.7 | 0.00 | 0.00 | 0.00 | 85 | 1012.0 |
| 20260503131134 | 54 | 163 | 2.6 | 4.3 | 0.00 | 0.00 | 0.00 | 85 | 1011.5 |
| 20260503130632 | 54 | 170 | 0.9 | 3.5 | 0.00 | 0.00 | 0.00 | 85 | 1011.3 |
| 20260503130129 | 54 | 180 | 1.7 | 2.6 | 0.00 | 0.00 | 0.00 | 85 | 1011.4 |
| 20260503110516 | 54 | 321 | 0.9 | 1.7 | 0.00 | 0.00 | 0.00 | 86 | 1011.4 |
| 20260503090409 | 54 | 282 | 3.5 | 5.2 | 0.00 | 0.00 | 0.00 | 84 | 1011.8 |
| 20260503081335 | 54 | 339 | 2.6 | 5.2 | 0.00 | 0.00 | 0.00 | 85 | 1012.5 |
| 20260503080832 | 54 | 3 | 0.0 | 3.5 | 0.00 | 0.00 | 0.00 | 85 | 1012.1 |
| 20260503080328 | 54 | 264 | 0.9 | 1.7 | 0.00 | 0.00 | 0.00 | 85 | 1012.5 |
| 20260503072759 | 54 | 194 | 0.0 | 2.6 | 0.00 | 0.00 | 0.00 | 85 | 1012.3 |
| 20260503072256 | 54 | 140 | 0.0 | 2.6 | 0.00 | 0.00 | 0.00 | 85 | 1012.4 |
| 20260503071752 | 54 | 121 | 0.0 | 1.7 | 0.00 | 0.00 | 0.00 | 85 | 1012.3 |
| 20260503071249 | 54 | 305 | 2.6 | 2.6 | 0.00 | 0.00 | 0.00 | 85 | 1012.3 |
| 20260503070745 | 54 | 300 | 0.0 | 2.6 | 0.00 | 0.00 | 0.00 | 85 | 1012.3 |
| 20260503070244 | 54 | 292 | 2.6 | 7.0 | 0.00 | 0.00 | 0.00 | 85 | 1012.3 |
| 20260503060214 | 54 | 355 | 5.2 | 6.1 | 0.00 | 0.00 | 0.00 | 84 | 1012.5 |
| 20260503054701 | 54 | 200 | 1.7 | 6.1 | 0.00 | 0.00 | 0.00 | 84 | 1012.5 |
| 20260503054159 | 54 | 23 | 0.9 | 6.1 | 0.00 | 0.00 | 0.00 | 84 | 1012.7 |
| 20260503053656 | 54 | 280 | 1.7 | 3.5 | 0.00 | 0.00 | 0.00 | 83 | 1012.7 |
| 20260503053155 | 54 | 16 | 3.5 | 4.3 | 0.00 | 0.00 | 0.00 | 83 | 1012.9 |
| 20260503052651 | 54 | 228 | 1.7 | 3.5 | 0.00 | 0.00 | 0.00 | 83 | 1013.0 |
| 20260503052147 | 54 | 226 | 1.7 | 7.0 | 0.00 | 0.00 | 0.00 | 83 | 1012.8 |
| 20260503051642 | 54 | 269 | 0.0 | 5.2 | 0.00 | 0.00 | 0.00 | 83 | 1012.8 |
| 20260503051141 | 54 | 260 | 5.2 | 7.8 | 0.00 | 0.00 | 0.00 | 83 | 1012.9 |
| 20260503050637 | 54 | 283 | 1.7 | 7.0 | 0.00 | 0.00 | 0.00 | 83 | 1013.0 |
| 20260503050134 | 54 | 269 | 4.3 | 9.6 | 0.00 | 0.00 | 0.00 | 83 | 1012.9 |
| 20260503045631 | 54 | 181 | 2.6 | 2.6 | 0.00 | 0.00 | 0.00 | 83 | 1012.9 |
| 20260503045128 | 54 | 16 | 0.9 | 4.3 | 0.00 | 0.00 | 0.00 | 83 | 1012.8 |
| 20260503044625 | 54 | 220 | 1.7 | 9.6 | 0.00 | 0.00 | 0.00 | 83 | 1012.9 |
| 20260503044122 | 54 | 8 | 2.6 | 3.5 | 0.00 | 0.00 | 0.00 | 83 | 1012.8 |
| 20260503043619 | 54 | 185 | 1.7 | 3.5 | 0.00 | 0.00 | 0.00 | 83 | 1012.8 |
| 20260503043116 | 54 | 170 | 1.7 | 6.1 | 0.00 | 0.00 | 0.00 | 84 | 1012.6 |
| 20260503042612 | 54 | 335 | 1.7 | 7.8 | 0.00 | 0.00 | 0.00 | 84 | 1012.8 |
| 20260503042108 | 54 | 248 | 1.7 | 7.8 | 0.00 | 0.00 | 0.00 | 83 | 1012.7 |
| 20260503041605 | 54 | 285 | 4.3 | 4.3 | 0.00 | 0.00 | 0.00 | 83 | 1012.8 |
| 20260503041103 | 54 | 226 | 2.6 | 10.4 | 0.00 | 0.00 | 0.00 | 82 | 1012.6 |
| 20260503040600 | 54 | 180 | 1.7 | 8.7 | 0.00 | 0.00 | 0.00 | 83 | 1012.3 |
| 20260503040057 | 54 | 219 | 3.5 | 3.5 | 0.00 | 0.00 | 0.00 | 83 | 1012.6 |
| 20260503035554 | 54 | 252 | 3.5 | 4.3 | 0.00 | 0.00 | 0.00 | 83 | 1012.4 |
| 20260503035052 | 54 | 254 | 2.6 | 7.0 | 0.00 | 0.00 | 0.00 | 83 | 1012.5 |
| 20260503034548 | 54 | 2 | 3.5 | 4.3 | 0.00 | 0.00 | 0.00 | 83 | 1012.6 |
| 20260503034046 | 54 | 110 | 0.0 | 4.3 | 0.00 | 0.00 | 0.00 | 83 | 1012.6 |
| 20260503033543 | 54 | 354 | 2.6 | 5.2 | 0.00 | 0.00 | 0.00 | 84 | 1012.5 |
| 20260503033041 | 54 | 317 | 0.0 | 6.1 | 0.00 | 0.00 | 0.00 | 84 | 1012.3 |
| 20260503032539 | 54 | 351 | 3.5 | 5.2 | 0.00 | 0.00 | 0.00 | 83 | 1012.3 |
| 20260503032037 | 54 | 213 | 0.0 | 3.5 | 0.00 | 0.00 | 0.00 | 83 | 1012.3 |
| 20260503031534 | 54 | 163 | 1.7 | 7.0 | 0.00 | 0.00 | 0.00 | 83 | 1012.1 |
| 20260503031031 | 54 | 250 | 5.2 | 8.7 | 0.00 | 0.00 | 0.00 | 84 | 1011.9 |
| 20260503030527 | 54 | 266 | 5.2 | 8.7 | 0.00 | 0.00 | 0.00 | 84 | 1012.0 |
| 20260503030025 | 54 | 316 | 6.1 | 7.8 | 0.00 | 0.00 | 0.00 | 84 | 1011.8 |
| 20260503025521 | 54 | 203 | 2.6 | 6.1 | 0.00 | 0.00 | 0.00 | 83 | 1011.8 |
| 20260503025019 | 54 | 358 | 2.6 | 2.6 | 0.00 | 0.00 | 0.00 | 83 | 1011.9 |
| 20260503024515 | 55 | 196 | 0.9 | 6.1 | 0.00 | 0.00 | 0.00 | 83 | 1011.7 |
| 20260503024012 | 54 | 240 | 0.0 | 3.5 | 0.00 | 0.00 | 0.00 | 82 | 1011.7 |
| 20260503023509 | 55 | 289 | 4.3 | 4.3 | 0.00 | 0.00 | 0.00 | 83 | 1011.6 |
| 20260503023006 | 55 | 167 | 2.6 | 5.2 | 0.00 | 0.00 | 0.00 | 83 | 1011.8 |
| 20260503022502 | 55 | 223 | 5.2 | 9.6 | 0.00 | 0.00 | 0.00 | 82 | 1011.7 |
| 20260503021957 | 55 | 214 | 5.2 | 7.0 | 0.00 | 0.00 | 0.00 | 82 | 1011.8 |
| 20260503021454 | 55 | 288 | 2.6 | 2.6 | 0.00 | 0.00 | 0.00 | 82 | 1011.4 |
| 20260503020951 | 55 | 279 | 3.5 | 7.0 | 0.00 | 0.00 | 0.00 | 82 | 1012.0 |
| 20260503020448 | 55 | 218 | 5.2 | 9.6 | 0.00 | 0.00 | 0.00 | 81 | 1011.8 |
| 20260503015945 | 55 | 1 | 1.7 | 3.5 | 0.00 | 0.00 | 0.00 | 81 | 1011.7 |
| 20260503015442 | 55 | 230 | 7.0 | 9.6 | 0.00 | 0.00 | 0.00 | 80 | 1011.9 |
| 20260503014938 | 55 | 300 | 7.0 | 7.8 | 0.00 | 0.00 | 0.00 | 80 | 1012.0 |
| 20260503014435 | 56 | 249 | 5.2 | 7.8 | 0.00 | 0.00 | 0.00 | 79 | 1012.0 |
| 20260503013933 | 56 | 92 | 1.7 | 9.6 | 0.00 | 0.00 | 0.00 | 79 | 1012.0 |
| 20260503013430 | 56 | 306 | 5.2 | 8.7 | 0.00 | 0.00 | 0.00 | 79 | 1012.1 |
| 20260503012927 | 56 | 335 | 3.5 | 7.8 | 0.00 | 0.00 | 0.00 | 79 | 1011.8 |
| 20260503012426 | 56 | 346 | 3.5 | 7.0 | 0.00 | 0.00 | 0.00 | 79 | 1012.1 |
| 20260503011921 | 56 | 308 | 4.3 | 8.7 | 0.00 | 0.00 | 0.00 | 78 | 1012.3 |
| 20260503011418 | 56 | 66 | 0.0 | 7.0 | 0.00 | 0.00 | 0.00 | 78 | 1012.1 |
| 20260503010915 | 57 | 293 | 4.3 | 7.8 | 0.00 | 0.00 | 0.00 | 77 | 1012.2 |
| 20260503010412 | 57 | 320 | 4.3 | 7.8 | 0.00 | 0.00 | 0.00 | 76 | 1012.3 |
| 20260503005909 | 57 | 71 | 0.0 | 4.3 | 0.00 | 0.00 | 0.00 | 76 | 1012.0 |
| 20260503005406 | 57 | 224 | 1.7 | 13.0 | 0.00 | 0.00 | 0.00 | 75 | 1012.4 |
| 20260503004902 | 57 | 264 | 1.7 | 5.2 | 0.00 | 0.00 | 0.00 | 77 | 1012.2 |
| 20260503004359 | 57 | 322 | 0.0 | 2.6 | 0.00 | 0.00 | 0.00 | 77 | 1012.1 |
| 20260503003857 | 57 | 332 | 7.0 | 8.7 | 0.00 | 0.00 | 0.00 | 77 | 1012.3 |
| 20260503003354 | 57 | 231 | 5.2 | 7.0 | 0.00 | 0.00 | 0.00 | 77 | 1012.4 |
| 20260503002850 | 57 | 189 | 0.9 | 9.6 | 0.00 | 0.00 | 0.00 | 77 | 1012.4 |
| 20260503002348 | 57 | 216 | 0.9 | 3.5 | 0.00 | 0.00 | 0.00 | 77 | 1012.3 |
| 20260503001844 | 57 | 315 | 5.2 | 7.8 | 0.00 | 0.00 | 0.00 | 77 | 1012.3 |
| 20260503001341 | 57 | 349 | 7.8 | 8.7 | 0.00 | 0.00 | 0.00 | 77 | 1012.4 |
| 20260503000839 | 57 | 264 | 7.0 | 10.4 | 0.00 | 0.00 | 0.00 | 76 | 1012.5 |
| 20260503000336 | 57 | 357 | 1.7 | 3.5 | 0.00 | 0.00 | 0.00 | 76 | 1012.3 |
| 20260502235833 | 57 | 233 | 0.9 | 2.6 | 0.00 | 0.00 | 0.00 | 77 | 1012.5 |
| 20260502235330 | 57 | 236 | 1.7 | 5.2 | 0.00 | 0.00 | 0.00 | 77 | 1012.6 |
| 20260502234827 | 57 | 239 | 1.7 | 7.8 | 0.00 | 0.00 | 0.00 | 78 | 1012.4 |
| 20260502234323 | 57 | 232 | 2.6 | 12.2 | 0.00 | 0.00 | 0.00 | 77 | 1012.5 |
| 20260502233820 | 57 | 9 | 2.6 | 4.3 | 0.00 | 0.00 | 0.00 | 76 | 1012.5 |
| 20260502233316 | 58 | 333 | 3.5 | 7.8 | 0.00 | 0.00 | 0.00 | 76 | 1012.4 |
| 20260502232813 | 58 | 211 | 9.6 | 13.0 | 0.00 | 0.00 | 0.00 | 74 | 1012.5 |
| 20260502232309 | 58 | 92 | 1.7 | 6.1 | 0.00 | 0.00 | 0.00 | 75 | 1012.8 |
| 20260502231806 | 59 | 359 | 1.7 | 6.1 | 0.00 | 0.00 | 0.00 | 73 | 1012.7 |
| 20260502231304 | 58 | 48 | 1.7 | 9.6 | 0.00 | 0.00 | 0.00 | 74 | 1012.6 |
| 20260502230802 | 59 | 347 | 7.8 | 10.4 | 0.00 | 0.00 | 0.00 | 73 | 1012.9 |
| 20260502230300 | 59 | 53 | 0.0 | 4.3 | 0.00 | 0.00 | 0.00 | 75 | 1012.9 |
| 20260502225756 | 58 | 353 | 4.3 | 7.0 | 0.00 | 0.00 | 0.00 | 74 | 1013.1 |
| 20260502225253 | 58 | 314 | 7.8 | 9.6 | 0.00 | 0.00 | 0.00 | 75 | 1013.2 |
| 20260502224749 | 58 | 315 | 7.0 | 9.6 | 0.00 | 0.00 | 0.00 | 74 | 1013.2 |
| 20260502224246 | 57 | 153 | 3.5 | 5.2 | 0.00 | 0.00 | 0.00 | 75 | 1013.5 |
| 20260502223743 | 58 | 264 | 3.5 | 8.7 | 0.00 | 0.00 | 0.00 | 75 | 1013.2 |
| 20260502223241 | 58 | 10 | 4.3 | 6.1 | 0.00 | 0.00 | 0.00 | 76 | 1013.4 |
| 20260502222739 | 57 | 173 | 3.5 | 8.7 | 0.00 | 0.00 | 0.00 | 78 | 1013.5 |
| 20260502222236 | 57 | 308 | 1.7 | 8.7 | 0.00 | 0.00 | 0.00 | 78 | 1013.6 |
| 20260502221731 | 57 | 187 | 0.9 | 7.0 | 0.00 | 0.00 | 0.00 | 78 | 1013.7 |
| 20260502221228 | 57 | 314 | 2.6 | 3.5 | 0.00 | 0.00 | 0.00 | 77 | 1013.8 |
| 20260502220725 | 57 | 227 | 3.5 | 6.1 | 0.00 | 0.00 | 0.00 | 77 | 1013.8 |
| 20260502220221 | 58 | 247 | 7.0 | 12.2 | 0.00 | 0.00 | 0.00 | 75 | 1013.8 |
| 20260502215718 | 58 | 229 | 6.1 | 7.8 | 0.00 | 0.00 | 0.00 | 75 | 1014.0 |
| 20260502215215 | 58 | 221 | 5.2 | 7.0 | 0.00 | 0.00 | 0.00 | 74 | 1013.9 |
| 20260502214713 | 58 | 247 | 6.1 | 7.8 | 0.00 | 0.00 | 0.00 | 75 | 1013.8 |
| 20260502214209 | 59 | 216 | 4.3 | 11.3 | 0.00 | 0.00 | 0.00 | 74 | 1013.9 |
| 20260502213706 | 60 | 238 | 5.2 | 9.6 | 0.00 | 0.00 | 0.00 | 71 | 1013.8 |
| 20260502213204 | 60 | 98 | 2.6 | 7.0 | 0.00 | 0.00 | 0.00 | 73 | 1013.9 |